Location: Ash Shall?l al Awwal
(24.0167°N, 32.8667°E)
Time: 20:01:15
(UTC+00:00)

Cosmos 44 Rocket - Pass Details

Date: 02 March 2021
Orbit: 636 x 754 km, 65.1° (Epoch: 10 April)

Event Time Altitude Azimuth Distance (km) Brightness Sun altitude
Rises 17:46:59 0° 335° (NNW) 3,199 7.1 -27.1°
Reaches altitude 10° 17:49:24 10° 335° (NNW) 2,268 6.3 -27.6°
Enters shadow 17:53:25 54° 335° (NNW) 894 3.9 -28.5°
